Terminal Aerodrome Forecast
Issued by NWS Bismarck, ND

Home | Current Version | Previous Version | Graphics & Text | Print | Product List | Glossary On
Versions: 1 2 3 4 5 6 7 8 9 10 11 12 13 14 15 16 17
000
FTUS43 KBIS 251421 AAF
TAFBIS
TAF AMD
KBIS 251421Z 2514/2612 15015KT 2SM BR OVC002
      TEMPO 2515/2516 4SM BR OVC007
     FM251600 16011G20KT P6SM SCT015
     FM252200 16008KT P6SM BKN150
     FM260900 16005KT P6SM -SHRA OVC025=

USA.gov is the U.S. government's official web portal to all federal, state and local government web resources and services.